TimeEST,TemperatureF,Dew PointF,Humidity,Sea Level PressureIn,VisibilityMPH,Wind Direction,Wind SpeedMPH,Gust SpeedMPH,PrecipitationIn,Events,Conditions,WindDirDegrees,DateUTC
12:15 AM,28.4,15.8,59,30.39,10.0,SW,5.8,-,N/A,,Overcast,230,2013-12-01 05:15:00
12:35 AM,28.4,15.8,59,30.38,10.0,SW,6.9,-,N/A,,Overcast,230,2013-12-01 05:35:00
12:55 AM,28.4,15.8,59,30.37,10.0,SW,9.2,-,N/A,,Overcast,220,2013-12-01 05:55:00
1:15 AM,28.4,17.6,64,30.37,10.0,SW,5.8,-,N/A,,Overcast,230,2013-12-01 06:15:00
1:35 AM,28.4,17.6,64,30.36,10.0,WSW,4.6,-,N/A,,Overcast,240,2013-12-01 06:35:00
1:55 AM,28.4,17.6,64,30.35,10.0,SW,4.6,-,N/A,,Overcast,230,2013-12-01 06:55:00
2:15 AM,28.4,17.6,64,30.34,10.0,WSW,4.6,-,N/A,,Overcast,250,2013-12-01 07:15:00
2:35 AM,28.4,17.6,64,30.34,10.0,West,5.8,-,N/A,,Overcast,260,2013-12-01 07:35:00
2:55 AM,28.4,17.6,64,30.33,10.0,SW,8.1,-,N/A,,Overcast,220,2013-12-01 07:55:00
3:15 AM,28.4,17.6,64,30.32,10.0,WSW,4.6,-,N/A,,Overcast,240,2013-12-01 08:15:00
3:35 AM,28.4,17.6,64,30.31,10.0,WSW,4.6,-,N/A,,Overcast,240,2013-12-01 08:35:00
3:55 AM,28.4,19.4,69,30.31,10.0,West,3.5,-,N/A,,Overcast,260,2013-12-01 08:55:00
4:15 AM,28.4,19.4,69,30.30,10.0,WSW,4.6,-,N/A,,Overcast,250,2013-12-01 09:15:00
4:35 AM,28.4,19.4,69,30.29,10.0,WSW,3.5,-,N/A,,Overcast,250,2013-12-01 09:35:00
4:55 AM,28.4,19.4,69,30.28,10.0,Calm,Calm,-,N/A,,Overcast,0,2013-12-01 09:55:00
5:15 AM,28.4,19.4,69,30.28,10.0,Calm,Calm,-,N/A,,Overcast,0,2013-12-01 10:15:00
5:35 AM,28.4,19.4,69,30.27,10.0,Calm,Calm,-,N/A,,Overcast,0,2013-12-01 10:35:00
5:55 AM,28.4,19.4,69,30.27,10.0,Calm,Calm,-,N/A,,Overcast,0,2013-12-01 10:55:00
6:15 AM,28.4,19.4,69,30.27,10.0,Calm,Calm,-,N/A,,Overcast,0,2013-12-01 11:15:00
6:35 AM,28.4,21.2,74,30.26,10.0,Calm,Calm,-,N/A,,Overcast,0,2013-12-01 11:35:00
6:55 AM,28.4,21.2,74,30.26,10.0,Calm,Calm,-,N/A,,Overcast,0,2013-12-01 11:55:00
7:15 AM,28.4,21.2,74,30.26,10.0,Calm,Calm,-,N/A,,Overcast,0,2013-12-01 12:15:00
7:35 AM,28.4,21.2,74,30.25,10.0,Calm,Calm,-,N/A,,Overcast,0,2013-12-01 12:35:00
7:55 AM,28.4,21.2,74,30.25,10.0,Calm,Calm,-,N/A,,Overcast,0,2013-12-01 12:55:00
8:15 AM,28.4,21.2,74,30.25,10.0,Calm,Calm,-,N/A,,Overcast,0,2013-12-01 13:15:00
8:35 AM,28.4,21.2,74,30.25,10.0,Calm,Calm,-,N/A,,Overcast,0,2013-12-01 13:35:00
8:55 AM,30.2,23.0,75,30.24,10.0,Calm,Calm,-,N/A,,Overcast,0,2013-12-01 13:55:00
9:15 AM,30.2,23.0,75,30.24,10.0,Calm,Calm,-,N/A,,Overcast,0,2013-12-01 14:15:00
9:35 AM,30.2,23.0,75,30.24,10.0,Calm,Calm,-,N/A,,Overcast,0,2013-12-01 14:35:00
9:55 AM,32.0,23.0,69,30.24,10.0,Calm,Calm,-,N/A,,Overcast,0,2013-12-01 14:55:00
10:15 AM,32.0,24.8,75,30.23,10.0,Calm,Calm,-,N/A,,Overcast,0,2013-12-01 15:15:00
10:35 AM,32.0,24.8,75,30.22,10.0,East,3.5,-,N/A,,Overcast,80,2013-12-01 15:35:00
10:55 AM,32.0,26.6,80,30.20,10.0,East,3.5,-,N/A,,Overcast,90,2013-12-01 15:55:00
11:15 AM,33.8,26.6,75,30.20,10.0,Calm,Calm,-,N/A,,Overcast,0,2013-12-01 16:15:00
11:35 AM,33.8,26.6,75,30.19,10.0,Calm,Calm,-,N/A,,Overcast,0,2013-12-01 16:35:00
11:55 AM,33.8,26.6,75,30.18,10.0,NE,3.5,-,N/A,,Overcast,50,2013-12-01 16:55:00
12:15 PM,33.8,28.4,81,30.17,10.0,NE,3.5,-,N/A,,Overcast,40,2013-12-01 17:15:00
12:35 PM,33.8,28.4,81,30.17,10.0,ENE,3.5,-,N/A,,Overcast,60,2013-12-01 17:35:00
12:55 PM,33.8,28.4,81,30.16,10.0,NNE,5.8,-,N/A,,Overcast,30,2013-12-01 17:55:00
1:15 PM,33.8,28.4,81,30.15,10.0,NE,4.6,-,N/A,,Overcast,40,2013-12-01 18:15:00
1:35 PM,33.8,28.4,81,30.14,10.0,Calm,Calm,-,N/A,,Overcast,0,2013-12-01 18:35:00
1:55 PM,35.6,28.4,75,30.13,10.0,NNE,4.6,-,N/A,,Overcast,20,2013-12-01 18:55:00
2:15 PM,33.8,28.4,81,30.13,10.0,NE,3.5,-,N/A,,Overcast,50,2013-12-01 19:15:00
2:35 PM,33.8,28.4,81,30.13,10.0,NE,3.5,-,N/A,,Overcast,40,2013-12-01 19:35:00
2:55 PM,33.8,28.4,81,30.13,10.0,NE,4.6,-,N/A,,Overcast,50,2013-12-01 19:55:00
3:15 PM,33.8,28.4,81,30.12,10.0,NE,3.5,-,N/A,,Overcast,50,2013-12-01 20:15:00
3:35 PM,35.6,28.4,75,30.12,10.0,Calm,Calm,-,N/A,,Overcast,0,2013-12-01 20:35:00
3:55 PM,35.6,28.4,75,30.12,10.0,Calm,Calm,-,N/A,,Overcast,0,2013-12-01 20:55:00
4:15 PM,35.6,28.4,75,30.11,10.0,Calm,Calm,-,N/A,,Overcast,0,2013-12-01 21:15:00
4:35 PM,35.6,30.2,81,30.11,10.0,Calm,Calm,-,N/A,,Overcast,0,2013-12-01 21:35:00
4:55 PM,33.8,28.4,81,30.10,10.0,East,4.6,-,N/A,,Overcast,100,2013-12-01 21:55:00
5:15 PM,33.8,28.4,81,30.10,10.0,Calm,Calm,-,N/A,,Overcast,0,2013-12-01 22:15:00
5:35 PM,33.8,30.2,87,30.10,10.0,East,4.6,-,N/A,,Overcast,80,2013-12-01 22:35:00
5:55 PM,33.8,30.2,87,30.10,4.0,ENE,4.6,-,N/A,,Overcast,70,2013-12-01 22:55:00
6:15 PM,33.8,30.2,87,30.09,2.0,ENE,4.6,-,N/A,,Overcast,60,2013-12-01 23:15:00
6:35 PM,33.8,30.2,87,30.09,3.0,ENE,5.8,-,N/A,,Overcast,60,2013-12-01 23:35:00
6:55 PM,33.8,32.0,93,30.09,2.5,NE,3.5,-,N/A,,Overcast,50,2013-12-01 23:55:00
7:15 PM,33.8,32.0,93,30.09,1.5,NE,3.5,-,N/A,,Overcast,50,2013-12-02 00:15:00
7:35 PM,33.8,32.0,93,30.09,7.0,NE,4.6,-,N/A,,Overcast,40,2013-12-02 00:35:00
7:55 PM,33.8,32.0,93,30.08,10.0,ENE,4.6,-,N/A,,Overcast,60,2013-12-02 00:55:00
8:15 PM,33.8,32.0,93,30.07,10.0,ENE,4.6,-,N/A,,Overcast,60,2013-12-02 01:15:00
8:35 PM,33.8,32.0,93,30.08,10.0,NE,3.5,-,N/A,,Overcast,40,2013-12-02 01:35:00
8:55 PM,33.8,30.2,87,30.07,10.0,ENE,6.9,-,N/A,,Overcast,70,2013-12-02 01:55:00
9:15 PM,33.8,30.2,87,30.07,10.0,East,5.8,-,N/A,,Overcast,80,2013-12-02 02:15:00
9:35 PM,33.8,30.2,87,30.06,10.0,ENE,4.6,-,N/A,,Overcast,70,2013-12-02 02:35:00
9:55 PM,33.8,30.2,87,30.06,10.0,Calm,Calm,-,N/A,,Overcast,0,2013-12-02 02:55:00
10:15 PM,33.8,30.2,87,30.06,10.0,ENE,5.8,-,N/A,,Overcast,70,2013-12-02 03:15:00
10:35 PM,35.6,30.2,81,30.05,10.0,ENE,5.8,-,N/A,,Overcast,70,2013-12-02 03:35:00
10:55 PM,35.6,30.2,81,30.05,10.0,NE,5.8,-,N/A,,Overcast,50,2013-12-02 03:55:00
11:15 PM,35.6,30.2,81,30.04,10.0,ENE,6.9,-,N/A,,Overcast,60,2013-12-02 04:15:00
11:35 PM,35.6,30.2,81,30.04,10.0,ENE,6.9,-,N/A,,Overcast,60,2013-12-02 04:35:00
11:55 PM,35.6,30.2,81,30.03,10.0,ENE,9.2,-,N/A,,Overcast,70,2013-12-02 04:55:00